Chipley, FL

3:12 PM CST on December 12, 2017 (GMT -0600)
Chipley

Weather History for KVSH - December, 2013

Change the Weather History Date:

Tuesday, December 31, 2013

  Actual Average (KDHN) Record (KDHN)
Temperature  
Mean Temperature 48 °F -  
Max Temperature 51 °F 57 °F 77 °F (1965)
Min Temperature 44 °F 42 °F 21 °F (2000)
Degree Days  
Heating Degree Days 18    
Moisture  
Dew Point 38 °F    
Average Humidity 74    
Maximum Humidity 81    
Minimum Humidity 66    
Precipitation  
Precipitation 0.04 in - - ()
Sea Level Pressure  
Sea Level Pressure 30.36 in    
Wind  
Wind Speed 7 mph (NNE)    
Max Wind Speed 10 mph    
Max Gust Speed 16 mph    
Visibility 10 miles    
Events      
Averages and records for this station are not official NWS values.
T = Trace of Precipitation, MM = Missing Value Source: NWS Daily Summary

Daily Weather History Graph

Daily Weather History Graph

Search for Another Location

Airport or City:

Trip Planner

Search our weather history database for the weather conditions in past years. The results will help you decide how hot, cold, wet, or windy it might be!

Date:

Astronomy

Dec. 31, 2013 Rise Set
Actual Time 6:39 AM CST 4:51 PM CST
Civil Twilight 6:13 AM CST 5:17 PM CST
Nautical Twilight 5:43 AM CST 5:47 PM CST
Astronomical Twilight 5:13 AM CST 6:17 PM CST
Moon 5:34 AM CST (12/31) 4:23 PM CST (12/31)
Length of Visible Light 11h 04m
Length of Day
10h 11m
Waning Crescent, 1% of the Moon is Illuminated
Dec 31
Waning Crescent
Jan 1
New
Jan 7
First Quarter
Jan 15
Full
Jan 23
Last Quarter

Hourly Weather History & Observations

Time (CST) Temp. Windchill Dew Point Humidity Pressure Visibility Wind Dir Wind Speed Gust Speed Precip Events Conditions
12:15 AM 51.8 °F - 44.6 °F 76% 30.34 in 10.0 mi North 5.8 mph - N/A   Overcast
12:35 AM 51.8 °F - 44.6 °F 76% 30.33 in 10.0 mi NNE 8.1 mph - N/A   Overcast
12:55 AM 51.8 °F - 44.6 °F 76% 30.33 in 10.0 mi North 4.6 mph - N/A   Overcast
1:15 AM 50.0 °F - 42.8 °F 76% 30.33 in 10.0 mi NNE 6.9 mph - N/A   Overcast
1:35 AM 50.0 °F - 42.8 °F 76% 30.33 in 10.0 mi North 6.9 mph - N/A   Overcast
1:55 AM 50.0 °F - 42.8 °F 76% 30.32 in 10.0 mi NNE 5.8 mph - N/A   Mostly Cloudy
2:15 AM 48.2 °F - 41.0 °F 76% 30.34 in 10.0 mi NNE 8.1 mph - N/A   Scattered Clouds
2:35 AM 48.2 °F - 39.2 °F 71% 30.32 in 10.0 mi NNE 8.1 mph - N/A   Partly Cloudy
2:55 AM 48.2 °F - 39.2 °F 71% 30.32 in 10.0 mi NNE 8.1 mph - N/A   Clear
3:15 AM 48.2 °F - 39.2 °F 71% 30.33 in 10.0 mi NNE 9.2 mph - N/A   Clear
3:35 AM 48.2 °F - 39.2 °F 71% 30.35 in 10.0 mi NNE 8.1 mph - N/A   Clear
3:55 AM 48.2 °F - 37.4 °F 66% 30.34 in 10.0 mi North 6.9 mph - N/A   Clear
4:15 AM 46.4 °F 42.4 °F 37.4 °F 71% 30.34 in 10.0 mi NNE 8.1 mph 16.1 mph N/A   Clear
4:35 AM 46.4 °F 41.9 °F 37.4 °F 71% 30.33 in 10.0 mi NNE 9.2 mph - N/A   Partly Cloudy
4:55 AM 46.4 °F 41.5 °F 39.2 °F 76% 30.34 in 10.0 mi North 10.4 mph - N/A   Partly Cloudy
5:15 AM 46.4 °F 41.9 °F 37.4 °F 71% 30.33 in 10.0 mi NNE 9.2 mph - N/A   Clear
5:35 AM 46.4 °F 43.5 °F 37.4 °F 71% 30.35 in 10.0 mi NNE 5.8 mph - N/A   Partly Cloudy
5:55 AM 46.4 °F 42.4 °F 37.4 °F 71% 30.35 in 10.0 mi North 8.1 mph - N/A   Clear
6:15 AM 44.6 °F 40.2 °F 37.4 °F 76% 30.36 in 10.0 mi NNE 8.1 mph - N/A   Clear
6:35 AM 44.6 °F 41.4 °F 37.4 °F 76% 30.37 in 10.0 mi NNE 5.8 mph - N/A   Clear
6:55 AM 44.6 °F 40.7 °F 35.6 °F 71% 30.37 in 10.0 mi North 6.9 mph - N/A   Scattered Clouds
7:15 AM 44.6 °F 40.2 °F 35.6 °F 71% 30.39 in 10.0 mi North 8.1 mph - N/A   Scattered Clouds
7:35 AM 44.6 °F 40.2 °F 35.6 °F 71% 30.39 in 10.0 mi NNE 8.1 mph - N/A   Partly Cloudy
7:55 AM 44.6 °F 40.7 °F 35.6 °F 71% 30.41 in 10.0 mi North 6.9 mph - N/A   Partly Cloudy
8:15 AM 44.6 °F 40.2 °F 35.6 °F 71% 30.43 in 10.0 mi North 8.1 mph - N/A   Scattered Clouds
8:35 AM 44.6 °F 39.7 °F 35.6 °F 71% 30.43 in 10.0 mi North 9.2 mph - N/A   Partly Cloudy
8:55 AM 44.6 °F 40.2 °F 35.6 °F 71% 30.42 in 10.0 mi NNE 8.1 mph - N/A   Partly Cloudy
9:15 AM 44.6 °F 41.4 °F 35.6 °F 71% 30.42 in 10.0 mi North 5.8 mph - N/A   Scattered Clouds
9:35 AM 44.6 °F 40.7 °F 35.6 °F 71% 30.42 in 10.0 mi NNE 6.9 mph - N/A   Partly Cloudy
9:55 AM 44.6 °F 40.7 °F 35.6 °F 71% 30.41 in 10.0 mi North 6.9 mph - N/A   Partly Cloudy
10:15 AM 44.6 °F 40.2 °F 35.6 °F 71% 30.41 in 10.0 mi NNE 8.1 mph - N/A   Partly Cloudy
10:35 AM 44.6 °F 40.7 °F 35.6 °F 71% 30.42 in 10.0 mi North 6.9 mph - N/A   Scattered Clouds
10:55 AM 44.6 °F 41.4 °F 35.6 °F 71% 30.41 in 10.0 mi NNE 5.8 mph - N/A   Overcast
11:15 AM 44.6 °F 41.4 °F 35.6 °F 71% 30.39 in 10.0 mi ENE 5.8 mph - N/A   Overcast
11:35 AM 44.6 °F 40.7 °F 35.6 °F 71% 30.39 in 10.0 mi North 6.9 mph - N/A   Mostly Cloudy
11:55 AM 44.6 °F 40.2 °F 35.6 °F 71% 30.39 in 10.0 mi North 8.1 mph - N/A   Overcast
12:15 PM 44.6 °F 39.7 °F 35.6 °F 71% 30.38 in 10.0 mi North 9.2 mph - N/A   Overcast
12:35 PM 44.6 °F 40.2 °F 35.6 °F 71% 30.38 in 10.0 mi North 8.1 mph - N/A   Overcast
12:55 PM 44.6 °F 41.4 °F 35.6 °F 71% 30.36 in 10.0 mi NNE 5.8 mph - N/A   Overcast
1:15 PM 44.6 °F 40.7 °F 35.6 °F 71% 30.36 in 10.0 mi North 6.9 mph - N/A   Overcast
1:35 PM 44.6 °F 40.2 °F 35.6 °F 71% 30.34 in 10.0 mi NE 8.1 mph - N/A   Overcast
1:55 PM 44.6 °F 43.1 °F 35.6 °F 71% 30.34 in 10.0 mi NNE 3.5 mph - N/A   Overcast
2:15 PM 44.6 °F 42.2 °F 35.6 °F 71% 30.35 in 10.0 mi NNE 4.6 mph - N/A   Overcast
2:35 PM 44.6 °F 41.4 °F 37.4 °F 76% 30.36 in 10.0 mi North 5.8 mph - N/A   Overcast
2:55 PM 44.6 °F 41.4 °F 37.4 °F 76% 30.37 in 10.0 mi North 5.8 mph - N/A   Overcast
3:15 PM 44.6 °F 41.4 °F 37.4 °F 76% 30.36 in 10.0 mi North 5.8 mph - N/A   Overcast
3:35 PM 44.6 °F 39.7 °F 37.4 °F 76% 30.35 in 10.0 mi NNE 9.2 mph - N/A   Overcast
3:55 PM 44.6 °F 41.4 °F 37.4 °F 76% 30.33 in 10.0 mi NE 5.8 mph - N/A   Overcast
4:15 PM 44.6 °F 40.2 °F 37.4 °F 76% 30.35 in 10.0 mi North 8.1 mph - N/A   Overcast
4:35 PM 44.6 °F 43.1 °F 37.4 °F 76% 30.35 in 10.0 mi NNE 3.5 mph - N/A   Overcast
4:55 PM 44.6 °F 41.4 °F 37.4 °F 76% 30.35 in 10.0 mi NNE 5.8 mph - N/A   Overcast
5:15 PM 44.6 °F 40.2 °F 37.4 °F 76% 30.34 in 10.0 mi NNE 8.1 mph - N/A   Overcast
5:35 PM 44.6 °F 40.7 °F 37.4 °F 76% 30.36 in 10.0 mi North 6.9 mph - 0.01 in   Overcast
5:55 PM 44.6 °F 42.2 °F 37.4 °F 76% 30.37 in 10.0 mi North 4.6 mph - 0.01 in   Overcast
6:15 PM 44.6 °F 40.7 °F 37.4 °F 76% 30.36 in 10.0 mi North 6.9 mph - N/A   Overcast
6:35 PM 44.6 °F 41.4 °F 37.4 °F 76% 30.36 in 10.0 mi NNE 5.8 mph - N/A   Overcast
6:55 PM 44.6 °F 42.2 °F 37.4 °F 76% 30.37 in 10.0 mi NNE 4.6 mph - N/A   Overcast
7:15 PM 44.6 °F 42.2 °F 37.4 °F 76% 30.37 in 10.0 mi NNE 4.6 mph - N/A   Overcast
7:35 PM 44.6 °F 42.2 °F 37.4 °F 76% 30.39 in 10.0 mi NNE 4.6 mph - 0.01 in   Overcast
7:55 PM 44.6 °F 41.4 °F 37.4 °F 76% 30.36 in 10.0 mi NNE 5.8 mph - 0.01 in   Mostly Cloudy
8:15 PM 44.6 °F 41.4 °F 37.4 °F 76% 30.37 in 10.0 mi NE 5.8 mph - N/A   Clear
8:35 PM 44.6 °F 41.4 °F 37.4 °F 76% 30.38 in 10.0 mi NE 5.8 mph - N/A   Mostly Cloudy
8:55 PM 44.6 °F 40.7 °F 37.4 °F 76% 30.38 in 10.0 mi NE 6.9 mph - N/A   Overcast
9:15 PM 44.6 °F 41.4 °F 37.4 °F 76% 30.37 in 8.0 mi NE 5.8 mph - N/A   Overcast
9:35 PM 44.6 °F - 37.4 °F 76% 30.37 in 10.0 mi Calm Calm - N/A   Overcast
9:55 PM 44.6 °F 43.1 °F 37.4 °F 76% 30.36 in 10.0 mi NE 3.5 mph - N/A   Overcast
10:15 PM 44.6 °F 43.1 °F 37.4 °F 76% 30.36 in 10.0 mi NNE 3.5 mph - N/A   Overcast
10:35 PM 44.6 °F 43.1 °F 39.2 °F 81% 30.37 in 10.0 mi NNE 3.5 mph - 0.01 in   Overcast
10:55 PM 44.6 °F 43.1 °F 39.2 °F 81% 30.36 in 10.0 mi North 3.5 mph - 0.01 in   Overcast
11:15 PM 44.6 °F 41.4 °F 39.2 °F 81% 30.35 in 10.0 mi North 5.8 mph - N/A   Overcast
11:35 PM 44.6 °F 41.4 °F 39.2 °F 81% 30.34 in 10.0 mi NE 5.8 mph - 0.01 in   Overcast
11:55 PM 44.6 °F 41.4 °F 39.2 °F 81% 30.32 in 10.0 mi ENE 5.8 mph - 0.01 in   Overcast